Time,TemperatureF,DewpointF,PressureIn,WindDirection,WindDirectionDegrees,WindSpeedMPH,WindSpeedGustMPH,Humidity,HourlyPrecipIn,Conditions,Clouds,dailyrainin,SoftwareType,DateUTC
2013-05-29 00:00:00,51.1,45.5,24.83,NNW,344,9.0,13.0,81,0.00,,,-99.99,FreeWX 2.04,2013-05-29 06:00:00,
2013-05-29 00:06:00,50.7,45.7,24.83,NNW,341,9.0,13.9,83,0.00,,,-99.99,FreeWX 2.04,2013-05-29 06:06:00,
2013-05-29 00:11:00,50.2,45.5,24.83,NNW,341,9.0,12.1,84,0.00,,,-99.99,FreeWX 2.04,2013-05-29 06:11:00,
2013-05-29 00:16:00,50.4,45.7,24.83,NNW,344,8.0,13.9,84,0.00,,,-99.99,FreeWX 2.04,2013-05-29 06:16:00,
2013-05-29 00:21:00,50.0,45.3,24.83,North,350,9.0,13.9,84,0.00,,,-99.99,FreeWX 2.04,2013-05-29 06:21:00,
2013-05-29 00:26:00,50.0,45.7,24.83,North,349,9.0,12.5,85,0.00,,,-99.99,FreeWX 2.04,2013-05-29 06:26:00,
2013-05-29 00:31:00,50.0,45.7,24.83,North,351,9.0,13.9,85,0.00,,,-99.99,FreeWX 2.04,2013-05-29 06:31:00,
2013-05-29 00:36:00,50.2,45.5,24.83,North,353,9.0,13.4,84,0.00,,,-99.99,FreeWX 2.04,2013-05-29 06:36:00,
2013-05-29 00:41:00,50.4,45.3,24.83,North,349,8.0,12.1,83,0.00,,,-99.99,FreeWX 2.04,2013-05-29 06:41:00,
2013-05-29 00:46:00,50.5,45.9,24.83,North,0,7.0,8.7,84,0.00,,,-99.99,FreeWX 2.04,2013-05-29 06:46:00,
2013-05-29 00:51:00,50.5,45.9,24.83,NNE,15,7.0,11.0,84,0.00,,,-99.99,FreeWX 2.04,2013-05-29 06:51:00,
2013-05-29 00:56:00,50.7,45.7,24.83,NNE,18,7.0,12.5,83,0.00,,,-99.99,FreeWX 2.04,2013-05-29 06:56:00,
2013-05-29 01:01:00,50.9,45.9,24.83,NNE,18,6.0,11.2,83,0.00,,,-99.99,FreeWX 2.04,2013-05-29 07:01:00,
2013-05-29 01:06:00,50.7,45.5,24.83,NNE,18,6.0,8.7,82,0.00,,,-99.99,FreeWX 2.04,2013-05-29 07:06:00,
2013-05-29 01:11:00,51.1,45.1,24.83,NNE,17,5.0,7.4,80,0.00,,,-99.99,FreeWX 2.04,2013-05-29 07:11:00,
2013-05-29 01:16:00,50.9,45.0,24.83,NNE,21,4.0,6.9,80,0.00,,,-99.99,FreeWX 2.04,2013-05-29 07:16:00,
2013-05-29 01:21:00,50.9,44.6,24.83,NNE,31,3.0,4.9,79,0.00,,,-99.99,FreeWX 2.04,2013-05-29 07:21:00,
2013-05-29 01:26:00,50.7,44.4,24.83,NE,38,3.0,4.9,79,0.00,,,-99.99,FreeWX 2.04,2013-05-29 07:26:00,
2013-05-29 01:31:00,50.5,44.2,24.83,NE,35,4.0,5.8,79,0.00,,,-99.99,FreeWX 2.04,2013-05-29 07:31:00,
2013-05-29 01:36:00,50.5,43.9,24.83,NNE,28,4.0,6.3,78,0.00,,,-99.99,FreeWX 2.04,2013-05-29 07:36:00,
2013-05-29 01:41:00,50.5,43.9,24.83,NNE,18,3.0,5.8,78,0.00,,,-99.99,FreeWX 2.04,2013-05-29 07:41:00,
2013-05-29 01:46:00,50.5,43.9,24.83,North,11,2.0,4.5,78,0.00,,,-99.99,FreeWX 2.04,2013-05-29 07:46:00,
2013-05-29 01:51:00,50.5,43.9,24.83,NNE,12,2.0,4.9,78,0.00,,,-99.99,FreeWX 2.04,2013-05-29 07:51:00,
2013-05-29 01:56:00,50.4,43.7,24.83,North,5,3.0,4.9,78,0.00,,,-99.99,FreeWX 2.04,2013-05-29 07:56:00,
2013-05-29 02:01:00,50.4,43.7,24.83,North,350,4.0,4.9,78,0.00,,,-99.99,FreeWX 2.04,2013-05-29 08:01:00,
2013-05-29 02:06:00,50.4,43.7,24.83,NNW,343,4.0,5.4,78,0.00,,,-99.99,FreeWX 2.04,2013-05-29 08:06:00,
2013-05-29 02:11:00,50.2,43.9,24.83,NNW,345,3.0,4.9,79,0.00,,,-99.99,FreeWX 2.04,2013-05-29 08:11:00,
2013-05-29 02:16:00,49.8,43.9,24.83,NNW,346,3.0,4.0,80,0.00,,,-99.99,FreeWX 2.04,2013-05-29 08:16:00,
2013-05-29 02:21:00,49.8,43.9,24.83,NNW,346,3.0,4.0,80,0.00,,,-99.99,FreeWX 2.04,2013-05-29 08:21:00,
2013-05-29 02:26:00,49.8,44.2,24.83,NNW,347,1.0,3.1,81,0.00,,,-99.99,FreeWX 2.04,2013-05-29 08:26:00,
2013-05-29 02:36:00,49.8,44.6,24.83,North,349,2.0,4.9,82,0.00,,,-99.99,FreeWX 2.04,2013-05-29 08:36:00,
2013-05-29 02:41:00,49.5,44.6,24.83,NNE,16,2.0,4.5,83,0.00,,,-99.99,FreeWX 2.04,2013-05-29 08:41:00,
2013-05-29 02:46:00,49.3,44.4,24.83,NNE,28,3.0,5.4,83,0.00,,,-99.99,FreeWX 2.04,2013-05-29 08:46:00,
2013-05-29 02:51:00,49.8,45.1,24.83,NNW,348,4.0,7.4,84,0.00,,,-99.99,FreeWX 2.04,2013-05-29 08:51:00,
2013-05-29 02:56:00,49.8,45.1,24.83,NW,314,4.0,6.7,84,0.00,,,-99.99,FreeWX 2.04,2013-05-29 08:56:00,
2013-05-29 03:01:00,49.8,45.1,24.83,NNW,327,3.0,7.8,84,0.00,,,-99.99,FreeWX 2.04,2013-05-29 09:01:00,
2013-05-29 03:06:00,49.8,45.1,24.83,North,1,4.0,7.4,84,0.00,,,-99.99,FreeWX 2.04,2013-05-29 09:06:00,
2013-05-29 03:11:00,49.8,45.1,24.83,NNE,12,4.0,8.3,84,0.00,,,-99.99,FreeWX 2.04,2013-05-29 09:11:00,
2013-05-29 03:16:00,49.8,45.1,24.83,NNE,32,3.0,5.8,84,0.00,,,-99.99,FreeWX 2.04,2013-05-29 09:16:00,
2013-05-29 03:21:00,49.6,45.0,24.83,NE,44,3.0,6.9,84,0.00,,,-99.99,FreeWX 2.04,2013-05-29 09:21:00,
2013-05-29 03:26:00,49.3,44.6,24.83,ENE,74,3.0,6.3,84,0.00,,,-99.99,FreeWX 2.04,2013-05-29 09:26:00,
2013-05-29 03:31:00,49.3,44.6,24.83,East,93,2.0,4.0,84,0.00,,,-99.99,FreeWX 2.04,2013-05-29 09:31:00,
2013-05-29 03:36:00,49.1,44.4,24.83,East,95,1.0,2.7,84,0.00,,,-99.99,FreeWX 2.04,2013-05-29 09:36:00,
2013-05-29 03:41:00,48.9,45.0,24.83,ESE,102,2.0,6.9,86,0.00,,,-99.99,FreeWX 2.04,2013-05-29 09:41:00,
2013-05-29 03:46:00,49.1,45.1,24.83,SE,145,4.0,6.7,86,0.00,,,-99.99,FreeWX 2.04,2013-05-29 09:46:00,
2013-05-29 03:51:00,48.7,44.8,24.83,South,173,3.0,4.5,86,0.00,,,-99.99,FreeWX 2.04,2013-05-29 09:51:00,
2013-05-29 03:56:00,48.6,44.8,24.83,South,176,3.0,7.4,87,0.00,,,-99.99,FreeWX 2.04,2013-05-29 09:56:00,
2013-05-29 04:01:00,48.6,44.8,24.83,SW,220,4.0,7.4,87,0.00,,,-99.99,FreeWX 2.04,2013-05-29 10:01:00,
2013-05-29 04:06:00,48.6,44.8,24.83,West,261,5.0,5.8,87,0.00,,,-99.99,FreeWX 2.04,2013-05-29 10:06:00,
2013-05-29 04:11:00,49.1,45.1,24.83,West,264,3.0,4.9,86,0.00,,,-99.99,FreeWX 2.04,2013-05-29 10:11:00,
2013-05-29 04:16:00,49.3,45.0,24.83,WNW,290,2.0,4.9,85,0.00,,,-99.99,FreeWX 2.04,2013-05-29 10:16:00,
2013-05-29 04:21:00,48.6,44.2,24.83,NNW,341,3.0,4.9,85,0.00,,,-99.99,FreeWX 2.04,2013-05-29 10:21:00,
2013-05-29 04:26:00,48.4,44.1,24.83,North,5,2.0,4.0,85,0.00,,,-99.99,FreeWX 2.04,2013-05-29 10:26:00,
2013-05-29 04:31:00,48.2,44.2,24.83,North,5,1.0,4.5,86,0.00,,,-99.99,FreeWX 2.04,2013-05-29 10:31:00,
2013-05-29 04:36:00,47.8,43.9,24.83,North,5,2.0,4.5,86,0.00,,,-99.99,FreeWX 2.04,2013-05-29 10:36:00,
2013-05-29 04:41:00,47.8,44.2,24.83,North,6,2.0,4.9,87,0.00,,,-99.99,FreeWX 2.04,2013-05-29 10:41:00,
2013-05-29 04:46:00,47.7,44.1,24.83,NNE,19,2.0,5.4,87,0.00,,,-99.99,FreeWX 2.04,2013-05-29 10:46:00,
2013-05-29 04:51:00,47.7,44.1,24.83,NNE,31,1.0,0.0,87,0.00,,,-99.99,FreeWX 2.04,2013-05-29 10:51:00,
2013-05-29 04:56:00,47.8,44.2,24.83,North,-999,0.0,3.1,87,0.00,,,-99.99,FreeWX 2.04,2013-05-29 10:56:00,
2013-05-29 05:01:00,48.2,44.8,24.83,NNE,30,1.0,4.5,88,0.00,,,-99.99,FreeWX 2.04,2013-05-29 11:01:00,
2013-05-29 05:06:00,48.7,45.0,24.83,NNE,31,1.0,3.1,87,0.00,,,-99.99,FreeWX 2.04,2013-05-29 11:06:00,
2013-05-29 05:11:00,48.4,44.4,24.83,NNE,31,2.0,5.8,86,0.00,,,-99.99,FreeWX 2.04,2013-05-29 11:11:00,
2013-05-29 05:16:00,48.2,44.2,24.83,NNE,30,3.0,4.9,86,0.00,,,-99.99,FreeWX 2.04,2013-05-29 11:16:00,
2013-05-29 05:21:00,48.0,44.1,24.83,NNE,30,1.0,2.7,86,0.00,,,-99.99,FreeWX 2.04,2013-05-29 11:21:00,
2013-05-29 05:26:00,48.0,44.1,24.83,North,-999,0.0,2.7,86,0.00,,,-99.99,FreeWX 2.04,2013-05-29 11:26:00,
2013-05-29 05:32:00,47.8,43.9,24.83,North,-999,0.0,0.0,86,0.00,,,-99.99,FreeWX 2.04,2013-05-29 11:32:00,
2013-05-29 05:37:00,47.8,44.2,24.83,North,-999,0.0,0.0,87,0.00,,,-99.99,FreeWX 2.04,2013-05-29 11:37:00,
2013-05-29 05:42:00,47.5,43.9,24.83,North,-999,0.0,2.7,87,0.00,,,-99.99,FreeWX 2.04,2013-05-29 11:42:00,
2013-05-29 05:47:00,47.5,43.9,24.83,North,-999,0.0,0.0,87,0.00,,,-99.99,FreeWX 2.04,2013-05-29 11:47:00,
2013-05-29 05:52:00,47.8,44.4,24.83,North,-999,0.0,4.0,88,0.00,,,-99.99,FreeWX 2.04,2013-05-29 11:52:00,
2013-05-29 05:57:00,48.7,44.4,24.83,NNE,12,2.0,5.8,85,0.00,,,-99.99,FreeWX 2.04,2013-05-29 11:57:00,
2013-05-29 06:02:00,49.8,41.5,24.83,NW,325,4.0,6.3,73,0.00,,,-99.99,FreeWX 2.04,2013-05-29 12:02:00,
2013-05-29 06:07:00,50.2,40.1,24.83,West,277,5.0,6.9,68,0.00,,,-99.99,FreeWX 2.04,2013-05-29 12:07:00,
2013-05-29 06:12:00,50.4,37.8,24.83,SW,231,5.0,6.7,62,0.00,,,-99.99,FreeWX 2.04,2013-05-29 12:12:00,
2013-05-29 06:17:00,49.5,40.5,24.83,SSW,207,5.0,7.8,71,0.00,,,-99.99,FreeWX 2.04,2013-05-29 12:17:00,
2013-05-29 06:22:00,50.4,40.3,24.83,SSW,197,6.0,8.7,68,0.00,,,-99.99,FreeWX 2.04,2013-05-29 12:22:00,
2013-05-29 06:27:00,49.5,40.8,24.83,SSW,194,5.0,8.3,72,0.00,,,-99.99,FreeWX 2.04,2013-05-29 12:27:00,
2013-05-29 06:32:00,50.0,40.3,24.83,SSW,209,6.0,7.4,69,0.00,,,-99.99,FreeWX 2.04,2013-05-29 12:32:00,
2013-05-29 06:37:00,50.2,42.6,24.83,SSW,196,5.0,6.3,75,0.00,,,-99.99,FreeWX 2.04,2013-05-29 12:37:00,
2013-05-29 06:42:00,49.6,42.4,24.83,SSE,160,4.0,6.3,76,0.00,,,-99.99,FreeWX 2.04,2013-05-29 12:42:00,
2013-05-29 06:47:00,49.6,42.4,24.83,SSE,147,3.0,5.4,76,0.00,,,-99.99,FreeWX 2.04,2013-05-29 12:47:00,
2013-05-29 06:52:00,49.3,42.8,24.83,SE,140,2.0,4.9,78,0.00,,,-99.99,FreeWX 2.04,2013-05-29 12:52:00,
2013-05-29 06:57:00,49.3,43.0,24.86,ESE,113,3.0,5.4,79,0.00,,,-99.99,FreeWX 2.04,2013-05-29 12:57:00,
2013-05-29 07:02:00,49.5,44.2,24.86,East,88,3.0,6.3,82,0.00,,,-99.99,FreeWX 2.04,2013-05-29 13:02:00,
2013-05-29 07:07:00,50.4,45.1,24.86,SSW,208,3.0,6.7,82,0.00,,,-99.99,FreeWX 2.04,2013-05-29 13:07:00,
2013-05-29 07:12:00,50.9,45.0,24.86,WSW,249,3.0,6.3,80,0.00,,,-99.99,FreeWX 2.04,2013-05-29 13:12:00,
2013-05-29 07:17:00,51.1,44.4,24.86,SW,224,5.0,11.2,78,0.00,,,-99.99,FreeWX 2.04,2013-05-29 13:17:00,
2013-05-29 07:22:00,51.1,45.1,24.86,SW,222,7.0,9.6,80,0.00,,,-99.99,FreeWX 2.04,2013-05-29 13:22:00,
2013-05-29 07:27:00,50.5,44.2,24.86,SW,233,7.0,10.1,79,0.00,,,-99.99,FreeWX 2.04,2013-05-29 13:27:00,
2013-05-29 07:32:00,50.5,45.5,24.86,SW,230,8.0,12.1,83,0.00,,,-99.99,FreeWX 2.04,2013-05-29 13:32:00,
2013-05-29 07:37:00,50.5,45.3,24.86,SW,226,8.0,12.1,82,0.00,,,-99.99,FreeWX 2.04,2013-05-29 13:37:00,
2013-05-29 07:42:00,50.5,45.9,24.86,SW,226,8.0,11.6,84,0.00,,,-99.99,FreeWX 2.04,2013-05-29 13:42:00,
2013-05-29 07:47:00,50.2,43.9,24.86,SW,222,7.0,10.5,79,0.00,,,-99.99,FreeWX 2.04,2013-05-29 13:47:00,
2013-05-29 07:52:00,50.7,46.4,24.86,SW,224,6.0,7.8,85,0.00,,,-99.99,FreeWX 2.04,2013-05-29 13:52:00,
2013-05-29 07:57:00,50.5,46.2,24.86,SW,235,6.0,9.2,85,0.00,,,-99.99,FreeWX 2.04,2013-05-29 13:57:00,
2013-05-29 08:02:00,50.5,45.5,24.86,WSW,245,6.0,10.1,83,0.00,,,-99.99,FreeWX 2.04,2013-05-29 14:02:00,
2013-05-29 08:07:00,51.3,46.6,24.86,WSW,245,6.0,8.7,84,0.00,,,-99.99,FreeWX 2.04,2013-05-29 14:07:00,
2013-05-29 08:12:00,51.1,46.4,24.86,WSW,244,6.0,10.5,84,0.00,,,-99.99,FreeWX 2.04,2013-05-29 14:12:00,
2013-05-29 08:17:00,51.8,47.1,24.86,WSW,242,8.0,12.5,84,0.00,,,-99.99,FreeWX 2.04,2013-05-29 14:17:00,
2013-05-29 08:22:00,52.3,45.7,24.86,WSW,241,8.0,10.1,78,0.00,,,-99.99,FreeWX 2.04,2013-05-29 14:22:00,
2013-05-29 08:27:00,53.2,46.2,24.86,WSW,248,6.0,8.3,77,0.00,,,-99.99,FreeWX 2.04,2013-05-29 14:27:00,
2013-05-29 08:32:00,53.8,45.7,24.86,WSW,250,6.0,9.2,74,0.00,,,-99.99,FreeWX 2.04,2013-05-29 14:32:00,
2013-05-29 08:37:00,54.0,45.9,24.86,WSW,249,6.0,8.7,74,0.00,,,-99.99,FreeWX 2.04,2013-05-29 14:37:00,
2013-05-29 08:42:00,53.8,45.7,24.86,WSW,246,6.0,8.7,74,0.00,,,-99.99,FreeWX 2.04,2013-05-29 14:42:00,
2013-05-29 08:47:00,54.1,46.0,24.86,WSW,248,5.0,6.9,74,0.00,,,-99.99,FreeWX 2.04,2013-05-29 14:47:00,
2013-05-29 08:52:00,54.3,46.2,24.86,WSW,248,4.0,6.9,74,0.00,,,-99.99,FreeWX 2.04,2013-05-29 14:52:00,
2013-05-29 08:57:00,54.0,45.1,24.86,WSW,249,5.0,8.3,72,0.00,,,-99.99,FreeWX 2.04,2013-05-29 14:57:00,
2013-05-29 09:02:00,54.5,45.0,24.86,WSW,254,4.0,8.3,70,0.00,,,-99.99,FreeWX 2.04,2013-05-29 15:02:00,
2013-05-29 09:08:00,54.5,43.3,24.86,SW,234,4.0,7.8,66,0.00,,,-99.99,FreeWX 2.04,2013-05-29 15:08:00,
2013-05-29 09:13:00,54.9,44.4,24.86,SW,229,4.0,7.4,68,0.00,,,-99.99,FreeWX 2.04,2013-05-29 15:13:00,
2013-05-29 09:18:00,55.6,42.8,24.86,SW,232,5.0,8.7,62,0.00,,,-99.99,FreeWX 2.04,2013-05-29 15:18:00,
2013-05-29 09:23:00,55.6,42.3,24.86,SSW,196,6.0,7.8,61,0.00,,,-99.99,FreeWX 2.04,2013-05-29 15:23:00,
2013-05-29 09:28:00,55.4,42.6,24.86,South,186,6.0,10.1,62,0.00,,,-99.99,FreeWX 2.04,2013-05-29 15:28:00,
2013-05-29 09:33:00,55.4,42.3,24.86,South,186,5.0,6.9,61,0.00,,,-99.99,FreeWX 2.04,2013-05-29 15:33:00,
2013-05-29 09:38:00,55.8,42.1,24.86,SSW,205,5.0,9.6,60,0.00,,,-99.99,FreeWX 2.04,2013-05-29 15:38:00,
2013-05-29 09:43:00,55.8,43.0,24.86,SW,222,5.0,7.8,62,0.00,,,-99.99,FreeWX 2.04,2013-05-29 15:43:00,
2013-05-29 09:48:00,55.9,42.3,24.86,SW,215,4.0,8.3,60,0.00,,,-99.99,FreeWX 2.04,2013-05-29 15:48:00,
2013-05-29 09:53:00,56.1,41.2,24.86,South,189,5.0,8.7,57,0.00,,,-99.99,FreeWX 2.04,2013-05-29 15:53:00,
2013-05-29 09:58:00,56.1,41.9,24.86,SSE,166,6.0,10.5,59,0.00,,,-99.99,FreeWX 2.04,2013-05-29 15:58:00,
2013-05-29 10:03:00,55.9,39.9,24.86,South,176,6.0,9.6,55,0.00,,,-99.99,FreeWX 2.04,2013-05-29 16:03:00,
2013-05-29 10:08:00,56.3,40.3,24.86,SSW,200,5.0,5.0,55,0.00,,,-99.99,FreeWX 2.04,2013-05-29 16:08:00,
2013-05-29 10:13:00,56.8,39.9,24.86,SSW,195,4.0,7.4,53,0.00,,,-99.99,FreeWX 2.04,2013-05-29 16:13:00,
2013-05-29 10:18:00,57.2,39.7,24.86,South,175,5.0,7.8,52,0.00,,,-99.99,FreeWX 2.04,2013-05-29 16:18:00,
2013-05-29 10:23:00,57.4,38.3,24.86,South,183,4.0,5.4,49,0.00,,,-99.99,FreeWX 2.04,2013-05-29 16:23:00,
2013-05-29 10:28:00,57.9,38.3,24.86,South,175,3.0,5.8,48,0.00,,,-99.99,FreeWX 2.04,2013-05-29 16:28:00,
2013-05-29 10:33:00,59.0,38.8,24.86,SSE,158,4.0,11.2,47,0.00,,,-99.99,FreeWX 2.04,2013-05-29 16:33:00,
2013-05-29 10:38:00,59.0,36.5,24.86,South,184,6.0,13.0,43,0.00,,,-99.99,FreeWX 2.04,2013-05-29 16:38:00,
2013-05-29 10:43:00,59.7,37.2,24.83,SW,215,8.0,11.2,43,0.00,,,-99.99,FreeWX 2.04,2013-05-29 16:43:00,
2013-05-29 10:48:00,59.0,35.4,24.83,SSW,199,7.0,10.5,41,0.00,,,-99.99,FreeWX 2.04,2013-05-29 16:48:00,
2013-05-29 10:53:00,59.2,32.9,24.83,SSW,192,8.0,11.2,37,0.00,,,-99.99,FreeWX 2.04,2013-05-29 16:53:00,
2013-05-29 10:58:00,59.2,31.5,24.83,SSW,203,7.0,10.1,35,0.00,,,-99.99,FreeWX 2.04,2013-05-29 16:58:00,
2013-05-29 11:03:00,59.4,31.6,24.83,SW,224,7.0,11.2,35,0.00,,,-99.99,FreeWX 2.04,2013-05-29 17:03:00,
2013-05-29 11:08:00,59.2,30.9,24.83,SW,235,6.0,11.0,34,0.00,,,-99.99,FreeWX 2.04,2013-05-29 17:08:00,
2013-05-29 11:13:00,59.9,31.5,24.83,SW,230,6.0,10.1,34,0.00,,,-99.99,FreeWX 2.04,2013-05-29 17:13:00,
2013-05-29 11:18:00,61.2,34.0,24.83,SW,231,7.0,11.6,36,0.00,,,-99.99,FreeWX 2.04,2013-05-29 17:18:00,
2013-05-29 11:23:00,60.4,28.9,24.83,SSW,212,8.0,13.4,30,0.00,,,-99.99,FreeWX 2.04,2013-05-29 17:23:00,
2013-05-29 11:28:00,60.3,28.8,24.83,South,186,6.0,8.3,30,0.00,,,-99.99,FreeWX 2.04,2013-05-29 17:28:00,
2013-05-29 11:33:00,60.6,29.8,24.83,SSE,163,5.0,10.5,31,0.00,,,-99.99,FreeWX 2.04,2013-05-29 17:33:00,
2013-05-29 11:38:00,61.3,27.1,24.83,SSE,151,5.0,9.2,27,0.00,,,-99.99,FreeWX 2.04,2013-05-29 17:38:00,
2013-05-29 11:43:00,63.5,29.8,24.83,SE,143,5.0,9.2,28,0.00,,,-99.99,FreeWX 2.04,2013-05-29 17:43:00,
2013-05-29 11:48:00,63.9,26.4,24.83,SE,137,7.0,14.3,24,0.00,,,-99.99,FreeWX 2.04,2013-05-29 17:48:00,
2013-05-29 11:53:00,64.0,27.5,24.83,SE,145,6.0,9.6,25,0.00,,,-99.99,FreeWX 2.04,2013-05-29 17:53:00,
2013-05-29 11:58:00,63.5,26.1,24.83,SE,136,6.0,15.9,24,0.00,,,-99.99,FreeWX 2.04,2013-05-29 17:58:00,
2013-05-29 12:03:00,63.1,24.8,24.83,ESE,108,8.0,15.2,23,0.00,,,-99.99,FreeWX 2.04,2013-05-29 18:03:00,
2013-05-29 12:08:00,63.9,25.3,24.83,East,98,9.0,16.3,23,0.00,,,-99.99,FreeWX 2.04,2013-05-29 18:08:00,
2013-05-29 12:13:00,63.7,25.2,24.83,ESE,110,7.0,12.1,23,0.00,,,-99.99,FreeWX 2.04,2013-05-29 18:13:00,
2013-05-29 12:18:00,63.5,25.0,24.83,SE,145,7.0,14.3,23,0.00,,,-99.99,FreeWX 2.04,2013-05-29 18:18:00,
2013-05-29 12:23:00,64.9,26.2,24.83,SSE,159,9.0,20.6,23,0.00,,,-99.99,FreeWX 2.04,2013-05-29 18:23:00,
2013-05-29 12:28:00,63.7,21.9,24.83,SSE,156,11.0,20.6,20,0.00,,,-99.99,FreeWX 2.04,2013-05-29 18:28:00,
2013-05-29 12:33:00,64.0,19.8,24.83,SSE,160,11.0,16.8,18,0.00,,,-99.99,FreeWX 2.04,2013-05-29 18:33:00,
2013-05-29 12:38:00,63.9,19.6,24.83,SE,142,9.0,11.6,18,0.00,,,-99.99,FreeWX 2.04,2013-05-29 18:38:00,
2013-05-29 12:43:00,64.4,19.9,24.83,SE,134,8.0,14.8,18,0.00,,,-99.99,FreeWX 2.04,2013-05-29 18:43:00,
2013-05-29 12:48:00,65.5,16.7,24.83,ESE,116,9.0,17.7,15,0.00,,,-99.99,FreeWX 2.04,2013-05-29 18:48:00,
2013-05-29 12:53:00,65.5,19.6,24.83,ESE,118,8.0,12.5,17,0.00,,,-99.99,FreeWX 2.04,2013-05-29 18:53:00,
2013-05-29 12:58:00,64.8,12.7,24.83,ESE,119,7.0,14.8,13,0.00,,,-99.99,FreeWX 2.04,2013-05-29 18:58:00,
2013-05-29 13:03:00,65.1,13.1,24.83,East,99,7.0,18.6,13,0.00,,,-99.99,FreeWX 2.04,2013-05-29 19:03:00,
2013-05-29 13:08:00,65.5,11.5,24.83,SE,141,8.0,14.8,12,0.00,,,-99.99,FreeWX 2.04,2013-05-29 19:08:00,
2013-05-29 13:14:00,65.8,11.8,24.80,South,170,11.0,15.4,12,0.00,,,-99.99,FreeWX 2.04,2013-05-29 19:14:00,
2013-05-29 13:19:00,65.3,11.5,24.80,South,176,11.0,15.2,12,0.00,,,-99.99,FreeWX 2.04,2013-05-29 19:19:00,
2013-05-29 13:24:00,65.5,11.5,24.80,South,178,11.0,18.6,12,0.00,,,-99.99,FreeWX 2.04,2013-05-29 19:24:00,
2013-05-29 13:29:00,65.8,-99.9,24.80,South,178,13.0,22.4,-999,0.00,,,-99.99,FreeWX 2.04,2013-05-29 19:29:00,
2013-05-29 13:34:00,66.2,-99.9,24.80,South,177,12.0,19.5,-999,0.00,,,-99.99,FreeWX 2.04,2013-05-29 19:34:00,
2013-05-29 13:39:00,66.6,-99.9,24.80,South,169,9.0,18.6,-999,0.00,,,-99.99,FreeWX 2.04,2013-05-29 19:39:00,
2013-05-29 13:44:00,67.1,-99.9,24.80,SSE,160,10.0,19.0,-999,0.00,,,-99.99,FreeWX 2.04,2013-05-29 19:44:00,
2013-05-29 13:49:00,66.7,-99.9,24.80,South,177,13.0,22.8,-999,0.00,,,-99.99,FreeWX 2.04,2013-05-29 19:49:00,
2013-05-29 13:54:00,67.1,-99.9,24.80,South,183,11.0,18.1,-999,0.00,,,-99.99,FreeWX 2.04,2013-05-29 19:54:00,
2013-05-29 13:59:00,67.5,-99.9,24.80,SSE,163,10.0,21.0,-999,0.00,,,-99.99,FreeWX 2.04,2013-05-29 19:59:00,
2013-05-29 14:04:00,66.9,-99.9,24.80,SSE,158,12.0,21.0,-999,0.00,,,-99.99,FreeWX 2.04,2013-05-29 20:04:00,
2013-05-29 14:09:00,67.1,-99.9,24.80,SE,144,11.0,17.2,-999,0.00,,,-99.99,FreeWX 2.04,2013-05-29 20:09:00,
2013-05-29 14:14:00,67.6,-99.9,24.80,ESE,119,10.0,18.6,-999,0.00,,,-99.99,FreeWX 2.04,2013-05-29 20:14:00,
2013-05-29 14:19:00,69.4,-99.9,24.80,East,92,11.0,20.6,-999,0.00,,,-99.99,FreeWX 2.04,2013-05-29 20:19:00,
2013-05-29 14:24:00,67.6,-99.9,24.80,ESE,107,10.0,19.0,-999,0.00,,,-99.99,FreeWX 2.04,2013-05-29 20:24:00,
2013-05-29 14:29:00,69.1,-99.9,24.80,ESE,107,10.0,16.8,-999,0.00,,,-99.99,FreeWX 2.04,2013-05-29 20:29:00,
2013-05-29 14:34:00,68.4,-99.9,24.80,ESE,107,11.0,19.9,-999,0.00,,,-99.99,FreeWX 2.04,2013-05-29 20:34:00,
2013-05-29 14:40:00,66.7,-99.9,24.80,SE,142,11.0,20.1,-999,0.00,,,-99.99,FreeWX 2.04,2013-05-29 20:40:00,
2013-05-29 14:45:00,68.4,-99.9,24.77,SE,131,10.0,20.1,-999,0.00,,,-99.99,FreeWX 2.04,2013-05-29 20:45:00,
2013-05-29 14:50:00,67.8,-99.9,24.77,ESE,118,12.0,20.1,-999,0.00,,,-99.99,FreeWX 2.04,2013-05-29 20:50:00,
2013-05-29 14:55:00,67.5,-99.9,24.77,SE,125,12.0,19.0,-999,0.00,,,-99.99,FreeWX 2.04,2013-05-29 20:55:00,
2013-05-29 15:00:00,68.0,-99.9,24.77,ESE,115,11.0,22.8,-999,0.00,,,-99.99,FreeWX 2.04,2013-05-29 21:00:00,
2013-05-29 15:05:00,68.4,-99.9,24.77,ESE,113,11.0,16.3,-999,0.00,,,-99.99,FreeWX 2.04,2013-05-29 21:05:00,
2013-05-29 15:10:00,67.8,-99.9,24.77,ESE,109,12.0,23.7,-999,0.00,,,-99.99,FreeWX 2.04,2013-05-29 21:10:00,
2013-05-29 15:15:00,67.8,-99.9,24.77,ESE,115,12.0,18.6,-999,0.00,,,-99.99,FreeWX 2.04,2013-05-29 21:15:00,
2013-05-29 15:20:00,68.4,-99.9,24.77,ESE,111,10.0,19.5,-999,0.00,,,-99.99,FreeWX 2.04,2013-05-29 21:20:00,
2013-05-29 15:25:00,69.3,-99.9,24.77,East,96,10.0,16.8,-999,0.00,,,-99.99,FreeWX 2.04,2013-05-29 21:25:00,
2013-05-29 15:30:00,68.9,-99.9,24.77,East,91,12.0,19.9,-999,0.00,,,-99.99,FreeWX 2.04,2013-05-29 21:30:00,
2013-05-29 15:35:00,69.8,-99.9,24.77,East,92,12.0,17.7,-999,0.00,,,-99.99,FreeWX 2.04,2013-05-29 21:35:00,
2013-05-29 15:40:00,68.9,-99.9,24.77,ESE,111,12.0,21.5,-999,0.00,,,-99.99,FreeWX 2.04,2013-05-29 21:40:00,
2013-05-29 15:45:00,68.7,-99.9,24.77,SE,129,9.0,12.1,-999,0.00,,,-99.99,FreeWX 2.04,2013-05-29 21:45:00,
2013-05-29 15:50:00,68.7,-99.9,24.77,ESE,109,9.0,19.9,-999,0.00,,,-99.99,FreeWX 2.04,2013-05-29 21:50:00,
2013-05-29 15:55:00,68.9,-99.9,24.77,East,96,13.0,21.9,-999,0.00,,,-99.99,FreeWX 2.04,2013-05-29 21:55:00,
2013-05-29 16:00:00,68.9,-99.9,24.77,East,99,12.0,18.6,-999,0.00,,,-99.99,FreeWX 2.04,2013-05-29 22:00:00,
2013-05-29 16:05:00,69.6,-99.9,24.77,East,93,12.0,18.6,-999,0.00,,,-99.99,FreeWX 2.04,2013-05-29 22:05:00,
2013-05-29 16:10:00,69.8,-99.9,24.77,East,91,13.0,24.2,-999,0.00,,,-99.99,FreeWX 2.04,2013-05-29 22:10:00,
2013-05-29 16:15:00,69.3,-99.9,24.77,East,93,14.0,23.7,-999,0.00,,,-99.99,FreeWX 2.04,2013-05-29 22:15:00,
2013-05-29 16:20:00,69.6,-99.9,24.77,East,87,14.0,18.6,-999,0.00,,,-99.99,FreeWX 2.04,2013-05-29 22:20:00,
2013-05-29 16:25:00,69.8,-99.9,24.77,East,100,12.0,19.0,-999,0.00,,,-99.99,FreeWX 2.04,2013-05-29 22:25:00,
2013-05-29 16:30:00,70.7,-99.9,24.77,ESE,111,10.0,15.2,-999,0.00,,,-99.99,FreeWX 2.04,2013-05-29 22:30:00,
2013-05-29 16:35:00,70.2,-99.9,24.77,ESE,106,10.0,17.7,-999,0.00,,,-99.99,FreeWX 2.04,2013-05-29 22:35:00,
2013-05-29 16:40:00,70.0,-99.9,24.77,East,97,13.0,23.7,-999,0.00,,,-99.99,FreeWX 2.04,2013-05-29 22:40:00,
2013-05-29 16:45:00,69.6,-99.9,24.77,East,91,15.0,22.8,-999,0.00,,,-99.99,FreeWX 2.04,2013-05-29 22:45:00,
2013-05-29 16:50:00,69.1,-99.9,24.77,ESE,105,14.0,24.4,-999,0.00,,,-99.99,FreeWX 2.04,2013-05-29 22:50:00,
2013-05-29 16:55:00,69.1,-99.9,24.77,ESE,105,15.0,26.2,-999,0.00,,,-99.99,FreeWX 2.04,2013-05-29 22:55:00,
2013-05-29 17:00:00,68.2,-99.9,24.77,ESE,102,15.0,26.6,-999,0.00,,,-99.99,FreeWX 2.04,2013-05-29 23:00:00,
2013-05-29 17:05:00,68.7,-99.9,24.77,ESE,103,14.0,24.8,-999,0.00,,,-99.99,FreeWX 2.04,2013-05-29 23:05:00,
2013-05-29 17:10:00,69.4,-99.9,24.77,East,99,12.0,21.5,-999,0.00,,,-99.99,FreeWX 2.04,2013-05-29 23:10:00,
2013-05-29 17:15:00,69.1,-99.9,24.77,ESE,107,12.0,20.1,-999,0.00,,,-99.99,FreeWX 2.04,2013-05-29 23:15:00,
2013-05-29 17:21:00,69.1,-99.9,24.77,ESE,106,12.0,15.2,-999,0.00,,,-99.99,FreeWX 2.04,2013-05-29 23:21:00,
2013-05-29 17:26:00,68.5,-99.9,24.77,ESE,102,10.0,16.8,-999,0.00,,,-99.99,FreeWX 2.04,2013-05-29 23:26:00,
2013-05-29 17:31:00,68.7,-99.9,24.77,ESE,108,10.0,20.1,-999,0.00,,,-99.99,FreeWX 2.04,2013-05-29 23:31:00,
2013-05-29 17:36:00,69.8,-99.9,24.77,ESE,119,8.0,15.4,-999,0.00,,,-99.99,FreeWX 2.04,2013-05-29 23:36:00,
2013-05-29 17:41:00,69.6,-99.9,24.77,SE,142,9.0,20.1,-999,0.00,,,-99.99,FreeWX 2.04,2013-05-29 23:41:00,
2013-05-29 17:46:00,69.8,-99.9,24.77,SSE,151,12.0,26.2,-999,0.00,,,-99.99,FreeWX 2.04,2013-05-29 23:46:00,
2013-05-29 17:51:00,69.4,-99.9,24.77,SSE,151,14.0,25.3,-999,0.00,,,-99.99,FreeWX 2.04,2013-05-29 23:51:00,
2013-05-29 17:56:00,69.3,-99.9,24.77,SSE,148,13.0,22.8,-999,0.00,,,-99.99,FreeWX 2.04,2013-05-29 23:56:00,
2013-05-29 18:01:00,69.3,-99.9,24.77,SE,143,12.0,19.9,-999,0.00,,,-99.99,FreeWX 2.04,2013-05-30 00:01:00,
2013-05-29 18:06:00,68.9,-99.9,24.77,SSE,150,12.0,22.8,-999,0.00,,,-99.99,FreeWX 2.04,2013-05-30 00:06:00,
2013-05-29 18:11:00,69.1,-99.9,24.77,ESE,121,12.0,21.5,-999,0.00,,,-99.99,FreeWX 2.04,2013-05-30 00:11:00,
2013-05-29 18:16:00,69.1,-99.9,24.77,East,93,13.0,21.0,-999,0.00,,,-99.99,FreeWX 2.04,2013-05-30 00:16:00,
2013-05-29 18:21:00,69.8,-99.9,24.77,ESE,110,12.0,18.6,-999,0.00,,,-99.99,FreeWX 2.04,2013-05-30 00:21:00,
2013-05-29 18:26:00,69.1,-99.9,24.77,SE,142,12.0,24.8,-999,0.00,,,-99.99,FreeWX 2.04,2013-05-30 00:26:00,
2013-05-29 18:31:00,68.7,-99.9,24.77,SSE,160,15.0,26.2,-999,0.00,,,-99.99,FreeWX 2.04,2013-05-30 00:31:00,
2013-05-29 18:36:00,68.7,-99.9,24.77,SSE,157,14.0,26.2,-999,0.00,,,-99.99,FreeWX 2.04,2013-05-30 00:36:00,
2013-05-29 18:41:00,69.1,-99.9,24.77,SE,137,10.0,13.4,-999,0.00,,,-99.99,FreeWX 2.04,2013-05-30 00:41:00,
2013-05-29 18:46:00,68.5,-99.9,24.77,SE,140,10.0,21.5,-999,0.00,,,-99.99,FreeWX 2.04,2013-05-30 00:46:00,
2013-05-29 18:51:00,68.2,-99.9,24.77,SSE,147,10.0,16.3,-999,0.00,,,-99.99,FreeWX 2.04,2013-05-30 00:51:00,
2013-05-29 18:56:00,67.8,-99.9,24.77,SSE,155,10.0,15.2,-999,0.00,,,-99.99,FreeWX 2.04,2013-05-30 00:56:00,
2013-05-29 19:01:00,68.4,-99.9,24.77,SSE,166,10.0,16.8,-999,0.00,,,-99.99,FreeWX 2.04,2013-05-30 01:01:00,
2013-05-29 19:06:00,68.9,-99.9,24.77,SSE,159,10.0,14.3,-999,0.00,,,-99.99,FreeWX 2.04,2013-05-30 01:06:00,
2013-05-29 19:11:00,68.9,-99.9,24.77,SSE,147,8.0,15.9,-999,0.00,,,-99.99,FreeWX 2.04,2013-05-30 01:11:00,
2013-05-29 19:16:00,68.7,-99.9,24.77,SSE,149,7.0,13.9,-999,0.00,,,-99.99,FreeWX 2.04,2013-05-30 01:16:00,
2013-05-29 19:21:00,68.9,-99.9,24.77,SE,139,6.0,7.8,-999,0.00,,,-99.99,FreeWX 2.04,2013-05-30 01:21:00,
2013-05-29 19:26:00,68.5,-99.9,24.77,SE,130,6.0,14.8,-999,0.00,,,-99.99,FreeWX 2.04,2013-05-30 01:26:00,
2013-05-29 19:31:00,67.8,-99.9,24.77,SE,136,7.0,12.5,-999,0.00,,,-99.99,FreeWX 2.04,2013-05-30 01:31:00,
2013-05-29 19:36:00,67.8,-99.9,24.77,SE,143,8.0,14.3,-999,0.00,,,-99.99,FreeWX 2.04,2013-05-30 01:36:00,
2013-05-29 19:41:00,68.2,-99.9,24.77,SSE,151,9.0,15.9,-999,0.00,,,-99.99,FreeWX 2.04,2013-05-30 01:41:00,
2013-05-29 19:46:00,68.0,-99.9,24.77,SE,146,9.0,14.3,-999,0.00,,,-99.99,FreeWX 2.04,2013-05-30 01:46:00,
2013-05-29 19:51:00,68.0,-99.9,24.77,SE,140,8.0,14.3,-999,0.00,,,-99.99,FreeWX 2.04,2013-05-30 01:51:00,
2013-05-29 19:56:00,67.8,-99.9,24.77,SE,140,8.0,13.0,-999,0.00,,,-99.99,FreeWX 2.04,2013-05-30 01:56:00,
2013-05-29 20:01:00,67.6,-99.9,24.77,SSE,151,7.0,12.1,-999,0.00,,,-99.99,FreeWX 2.04,2013-05-30 02:01:00,
2013-05-29 20:06:00,67.3,-99.9,24.77,SSE,157,8.0,12.1,-999,0.00,,,-99.99,FreeWX 2.04,2013-05-30 02:06:00,
2013-05-29 20:11:00,66.9,-99.9,24.77,SSE,152,9.0,13.0,-999,0.00,,,-99.99,FreeWX 2.04,2013-05-30 02:11:00,
2013-05-29 20:16:00,66.9,-99.9,24.77,SE,144,10.0,14.3,-999,0.00,,,-99.99,FreeWX 2.04,2013-05-30 02:16:00,
2013-05-29 20:21:00,66.6,-99.9,24.77,SE,138,8.0,10.5,-999,0.00,,,-99.99,FreeWX 2.04,2013-05-30 02:21:00,
2013-05-29 20:26:00,66.6,-99.9,24.77,SE,139,7.0,13.0,-999,0.00,,,-99.99,FreeWX 2.04,2013-05-30 02:26:00,
2013-05-29 20:31:00,66.6,-99.9,24.77,SE,144,10.0,19.5,-999,0.00,,,-99.99,FreeWX 2.04,2013-05-30 02:31:00,
2013-05-29 20:36:00,66.6,-99.9,24.77,SE,139,11.0,14.3,-999,0.00,,,-99.99,FreeWX 2.04,2013-05-30 02:36:00,
2013-05-29 20:41:00,66.2,-99.9,24.80,SE,139,10.0,16.8,-999,0.00,,,-99.99,FreeWX 2.04,2013-05-30 02:41:00,
2013-05-29 20:46:00,66.0,-99.9,24.80,SE,143,10.0,15.4,-999,0.00,,,-99.99,FreeWX 2.04,2013-05-30 02:46:00,
2013-05-29 20:51:00,65.8,-99.9,24.80,SE,146,9.0,13.4,-999,0.00,,,-99.99,FreeWX 2.04,2013-05-30 02:51:00,
2013-05-29 20:56:00,65.5,-99.9,24.80,SSE,149,8.0,15.2,-999,0.00,,,-99.99,FreeWX 2.04,2013-05-30 02:56:00,
2013-05-29 21:01:00,65.1,-99.9,24.80,SSE,147,7.0,11.0,-999,0.00,,,-99.99,FreeWX 2.04,2013-05-30 03:01:00,
2013-05-29 21:06:00,65.5,-99.9,24.80,SSE,150,8.0,13.4,-999,0.00,,,-99.99,FreeWX 2.04,2013-05-30 03:06:00,
2013-05-29 21:11:00,65.3,-99.9,24.80,SSE,150,8.0,12.1,-999,0.00,,,-99.99,FreeWX 2.04,2013-05-30 03:11:00,
2013-05-29 21:16:00,65.3,-99.9,24.80,SE,145,9.0,15.9,-999,0.00,,,-99.99,FreeWX 2.04,2013-05-30 03:16:00,
2013-05-29 21:21:00,65.1,-99.9,24.80,SE,143,9.0,13.0,-999,0.00,,,-99.99,FreeWX 2.04,2013-05-30 03:21:00,
2013-05-29 21:26:00,64.8,-99.9,24.83,SSE,157,10.0,15.9,-999,0.00,,,-99.99,FreeWX 2.04,2013-05-30 03:26:00,
2013-05-29 21:31:00,63.9,-99.9,24.83,South,181,11.0,15.4,-999,0.00,,,-99.99,FreeWX 2.04,2013-05-30 03:31:00,
2013-05-29 21:36:00,63.1,-99.9,24.83,South,190,10.0,11.6,-999,0.00,,,-99.99,FreeWX 2.04,2013-05-30 03:36:00,
2013-05-29 21:41:00,62.4,-99.9,24.83,South,184,8.0,11.2,-999,0.00,,,-99.99,FreeWX 2.04,2013-05-30 03:41:00,
2013-05-29 21:46:00,61.9,-99.9,24.83,South,178,7.0,9.2,-999,0.00,,,-99.99,FreeWX 2.04,2013-05-30 03:46:00,
2013-05-29 21:51:00,61.7,-99.9,24.83,South,175,7.0,10.5,-999,0.00,,,-99.99,FreeWX 2.04,2013-05-30 03:51:00,
2013-05-29 21:56:00,61.5,-99.9,24.83,South,175,7.0,11.0,-999,0.00,,,-99.99,FreeWX 2.04,2013-05-30 03:56:00,
2013-05-29 22:01:00,61.3,-99.9,24.83,South,179,6.0,8.7,-999,0.00,,,-99.99,FreeWX 2.04,2013-05-30 04:01:00,
2013-05-29 22:06:00,61.3,-99.9,24.83,South,183,6.0,10.5,-999,0.00,,,-99.99,FreeWX 2.04,2013-05-30 04:06:00,
2013-05-29 22:11:00,61.2,-99.9,24.83,South,186,6.0,8.7,-999,0.00,,,-99.99,FreeWX 2.04,2013-05-30 04:11:00,
2013-05-29 22:16:00,61.0,-99.9,24.83,South,189,6.0,8.7,-999,0.00,,,-99.99,FreeWX 2.04,2013-05-30 04:16:00,
2013-05-29 22:21:00,61.2,-99.9,24.83,SSW,193,6.0,8.7,-999,0.00,,,-99.99,FreeWX 2.04,2013-05-30 04:21:00,
2013-05-29 22:26:00,61.0,-99.9,24.83,South,191,5.0,7.8,-999,0.00,,,-99.99,FreeWX 2.04,2013-05-30 04:26:00,
2013-05-29 22:31:00,60.6,5.9,24.83,South,184,4.0,4.5,11,0.00,,,-99.99,FreeWX 2.04,2013-05-30 04:31:00,
2013-05-29 22:36:00,60.1,5.4,24.83,South,185,3.0,4.5,11,0.00,,,-99.99,FreeWX 2.04,2013-05-30 04:36:00,
2013-05-29 22:41:00,59.5,7.0,24.86,South,185,1.0,2.7,12,0.00,,,-99.99,FreeWX 2.04,2013-05-30 04:41:00,
2013-05-29 22:46:00,59.4,6.8,24.86,South,184,1.0,3.6,12,0.00,,,-99.99,FreeWX 2.04,2013-05-30 04:46:00,
2013-05-29 22:51:00,59.4,6.8,24.86,South,190,3.0,4.9,12,0.00,,,-99.99,FreeWX 2.04,2013-05-30 04:51:00,
2013-05-29 22:56:00,59.2,6.6,24.86,SSW,203,3.0,4.9,12,0.00,,,-99.99,FreeWX 2.04,2013-05-30 04:56:00,
2013-05-29 23:01:00,59.2,6.6,24.86,SSW,207,2.0,5.4,12,0.00,,,-99.99,FreeWX 2.04,2013-05-30 05:01:00,
2013-05-29 23:06:00,59.4,10.2,24.86,SSE,158,3.0,7.8,14,0.00,,,-99.99,FreeWX 2.04,2013-05-30 05:06:00,
2013-05-29 23:11:00,62.6,-99.9,24.86,ESE,117,7.0,18.6,-999,0.00,,,-99.99,FreeWX 2.04,2013-05-30 05:11:00,
2013-05-29 23:16:00,62.6,-99.9,24.86,ESE,118,8.0,11.2,-999,0.00,,,-99.99,FreeWX 2.04,2013-05-30 05:16:00,
2013-05-29 23:22:00,62.4,-99.9,24.86,ESE,103,8.0,15.9,-999,0.00,,,-99.99,FreeWX 2.04,2013-05-30 05:22:00,
2013-05-29 23:27:00,63.0,-99.9,24.86,East,92,11.0,22.4,-999,0.00,,,-99.99,FreeWX 2.04,2013-05-30 05:27:00,
2013-05-29 23:37:00,62.6,-99.9,24.86,ESE,107,8.0,13.0,-999,0.00,,,-99.99,FreeWX 2.04,2013-05-30 05:37:00,
2013-05-29 23:42:00,62.6,-99.9,24.86,ESE,121,8.0,13.9,-999,0.00,,,-99.99,FreeWX 2.04,2013-05-30 05:42:00,
2013-05-29 23:47:00,62.1,-99.9,24.86,SE,135,7.0,8.3,-999,0.00,,,-99.99,FreeWX 2.04,2013-05-30 05:47:00,
2013-05-29 23:52:00,61.3,-99.9,24.86,SE,145,6.0,7.8,-999,0.00,,,-99.99,FreeWX 2.04,2013-05-30 05:52:00,
2013-05-29 23:57:00,60.6,-99.9,24.86,SSE,148,5.0,7.4,-999,0.00,,,-99.99,FreeWX 2.04,2013-05-30 05:57:00,